Location: Northam
(31.6525°S, 116.6655°E)
Time: 18:09:54
(UTC+08:00)

Hubble Space Telescope - Pass Details

Date: 19 May 2021
Orbit: 535 x 539 km, 28.5° (Epoch: 17 June)

Event Time Altitude Azimuth Distance (km) Brightness Sun altitude
Rises 18:55:44 0° 282° (WNW) 2,687 6.0 -19.7°
Reaches altitude 10° 18:58:02 10° 286° (WNW) 1,797 4.6 -20.2°
Maximum altitude 19:02:06 54° 4° (N) 661 1.2 -21.1°
Enters shadow 19:02:41 49° 37° (NE) 705 1.1 -21.2°
